Погода в Бленхейме

Новая Зеландия     41°30′48″S   173°57′38″E
темп.,
°C
ветер,
м/с
пор.,
м/с
влажн.,
%
обл.,
%
осадки,
мм/ч
давл.,
гПа
погр.,
м
25 февраля, чт
чт2501:00+17сз469186 0.0 1018190
04:00+16сз349494 0.0 101986
07:00+16зсз339492 0.0 102068
10:00+18в2382100 0.0 1021232
13:00+16в3484100 0.2 1022262
16:00+14вюв2396100 5.2 1022213
19:00+15в1294100 6.1 1022196
22:00+14вюв1295100 1.4 1024164
26 февраля, пт
пт2601:00+14вюв1194100 1.4 1023109
04:00+14ююз1194100 0.0 102265
07:00+14вюв0194100 0.1 102248
10:00+17всв118567 0.0 1023277
13:00+19всв217475 0.0 1021478
16:00+19в337465 0.0 1020364
19:00+17в228267 0.0 1019200
22:00+15з119365 0.0 102023
27 февраля, сб
сб2701:00+15зсз129249 0.0 102023
04:00+15зсз1193100 0.0 101823
07:00+14зсз129499 0.0 101824
10:00+18с1276100 0.0 1018277
13:00+21всв537099 0.0 1017479
16:00+22всв335998 0.0 1015522
19:00+21св126399 0.0 1015262
22:00+16зсз1284100 0.0 101528
28 февраля, вс
вс2801:00+15зсз228699 0.0 101627
04:00+15зсз228499 0.0 101532
07:00+14з228797 0.0 101532
10:00+19вюв116892 0.0 1016350
13:00+19в436894 0.0 1016484
16:00+19в447189 0.2 1014475
19:00+18вюв237791 0.3 1014293
22:00+15зюз019078 0.0 101523
1 марта, пн
пн101:00+14ююз128941 0.0 101523
04:00+14юз22911 0.0 101459
07:00+14юз228918 0.0 101454
10:00+18сз117386 0.0 1014287
13:00+19св446850 0.3 1013554
16:00+19всв45672 0.2 1011560
19:00+20всв22656 0.2 1010329
22:00+15юв118547 0.0 101123